YKRY

Details ICAO YKRY
Name Kingaroy
Region Australia
Timezone Australia/Brisbane (UTC+10.0)
Plans Departing 2
Arriving 6
Stats Elevation 1,492 ft / 455 m (AMSL)
Location -26.580469° 151.839888°
Runways 3
Magnetic Variation 10.396° E
Sunrise 2018-05-26 20:31:54 UTC / 2018-05-27 06:31:54 Local
Sunset 2018-05-27 07:10:28 UTC / 2018-05-27 17:10:28 Local
Advertisement - Login to hide

Runways

ID Width Length Bearing (true) Bearing (mag) Surface Threshold Offset Overrun Length
05 203 ft / 62 m 4,718 ft / 1,438 m 65.23° 54.83° Grass 0 ft / 0 m 0 ft / 0 m
16 98 ft / 30 m 5,274 ft / 1,608 m 169.15° 158.75° Asphalt 0 ft / 0 m 0 ft / 0 m
16R 102 ft / 31 m 3,553 ft / 1,083 m 168.38° 157.98° Grass 0 ft / 0 m 0 ft / 0 m
23 203 ft / 62 m 4,718 ft / 1,438 m 245.22° 234.82° Grass 0 ft / 0 m 0 ft / 0 m
34 98 ft / 30 m 5,274 ft / 1,608 m 349.15° 338.75° Asphalt 0 ft / 0 m 0 ft / 0 m
34L 102 ft / 31 m 3,553 ft / 1,083 m 348.38° 337.98° Grass 0 ft / 0 m 0 ft / 0 m

Map

Weather


0- 5 10 15 20 25 30 35+ Temperature / ° C

Clouds and Precipitation
Forecast for 2018-05-27 00:00 UTC. Updated 5 hours ago

Ground ~20,000 ft ~40,000 ft Winds

METAR

YKRY 270400Z AUTO 12009KT 9999 // SCT035 OVC063 21/11 Q1024

TAF

Not found

Frequencies

Unicom 122.70 MHz CTAF
Warning: Do not use this data for real-world aviation or navigation. No guarantee of current accuracy is given.